This is the latest recevied weather packets stored in our database for station/object KN6CW-3. If no packets are shown the sender has not sent any weather packets the latest 10 day(s).
| Time | Temp. | Humidity | Pressure | Rain* | Wind** | Luminosity | Snow |
|---|---|---|---|---|---|---|---|
| 1777914777 | 17.22° C | 43% | 1011.5 hPa | 0 mm | - | 928 W/m² | - |
| 1777914477 | 17.22° C | 44% | 1011.8 hPa | 0 mm | - | 930 W/m² | - |
| 1777914176 | 16.67° C | 45% | 1011.8 hPa | 0 mm | - | 933 W/m² | - |
| 1777913876 | 16.67° C | 42% | 1011.9 hPa | 0 mm | - | 933 W/m² | - |
| 1777913576 | 16.67° C | 42% | 1011.8 hPa | 0 mm | - | 933 W/m² | - |
| 1777913275 | 16.67° C | 43% | 1011.9 hPa | 0 mm | - | 926 W/m² | - |
| 1777912975 | 16.67° C | 43% | 1012.1 hPa | 0 mm | - | 928 W/m² | - |
| 1777912675 | 16.11° C | 44% | 1011.9 hPa | 0 mm | - | 923 W/m² | - |
| 1777912375 | 16.67° C | 43% | 1012.1 hPa | 0 mm | - | 921 W/m² | - |
| 1777912074 | 16.67° C | 42% | 1012.3 hPa | 0 mm | - | 925 W/m² | - |
| 1777911774 | 16.11° C | 43% | 1012.3 hPa | 0 mm | - | 925 W/m² | - |
| 1777911474 | 16.11° C | 43% | 1012.2 hPa | 0 mm | - | 919 W/m² | - |
| 1777911173 | 15.56° C | 43% | 1012.3 hPa | 0 mm | - | 919 W/m² | - |
| 1777910873 | 15.56° C | 44% | 1012.4 hPa | 0 mm | - | 911 W/m² | - |
| 1777910573 | 15.56° C | 42% | 1012.4 hPa | 0 mm | - | 907 W/m² | - |
| 1777910272 | 15.56° C | 42% | 1012.4 hPa | 0 mm | - | 902 W/m² | - |
| 1777909972 | 15.56° C | 42% | 1012.6 hPa | 0 mm | - | 900 W/m² | - |
| 1777909672 | 15.56° C | 44% | 1012.6 hPa | 0 mm | - | 895 W/m² | - |
| 1777909372 | 15.56° C | 44% | 1012.7 hPa | 0 mm | - | 888 W/m² | - |
| 1777909071 | 15.56° C | 44% | 1012.7 hPa | 0 mm | - | 884 W/m² | - |
| 1777908771 | 15° C | 44% | 1012.8 hPa | 0 mm | - | 875 W/m² | - |
| 1777908471 | 15° C | 43% | 1012.9 hPa | 0 mm | - | 868 W/m² | - |
| 1777908170 | 15° C | 43% | 1012.9 hPa | 0 mm | - | 856 W/m² | - |
| 1777907870 | 14.44° C | 42% | 1013.1 hPa | 0 mm | - | 851 W/m² | - |
| 1777907570 | 14.44° C | 44% | 1013.1 hPa | 0 mm | - | 840 W/m² | - |
* Rain latest hour (hover to see other rain measurements)
** Current wind speed in m/s (hover to see current wind gust speed)